Regional Weather Roundup
Issued by NWS

Home | Current Version | Previous Version | Graphics & Text | Print | Product List | Glossary On
Versions: 1 2 3 4 5 6 7 8 9 10 11 12 13 14 15 16 17 18 19 20 21 22 23 24 25 26 27 28 29 30 31 32 33 34 35 36 37 38 39 40 41 42 43 44 45 46 47 48 49 50
000
ASUS43 KOAX 161002
RWRNE

WEATHER ROUNDUP FOR NEBRASKA
NATIONAL WEATHER SERVICE OMAHA NE
500 AM CDT TUE SEP 16 2014

NOTES: SATELLITE DATA IS BEING USED TO AUGMENT CLOUD COVER ABOVE
       12000 FEET.
       "FAIR" INDICATES FEW OR NO CLOUDS BELOW 12,000 FEET WITH NO
       SIGNIFICANT WEATHER AND/OR OBSTRUCTIONS TO VISIBILITY.

  * THESE STATIONS DO NOT REPORT WEATHER SUCH AS RAIN...SNOW OR FOG.

NEZ001>004-019>022-054>056-161100-
NEBRASKA PANHANDLE

CITY           SKY/WX    TMP DP  RH WIND       PRES   REMARKS
SCOTTSBLUFF    MOCLDY    52  50  93 E9        30.09F
ALLIANCE       CLEAR     48  46  93 S7        30.09F
CHADRON        CLEAR     50  47  89 S7        30.06F
KIMBALL        PTCLDY    48  47  99 SW6       30.12F
SIDNEY         PTCLDY    52  49  89 S10       30.13F
$$

NEZ057>060-069>072-079>082-161100-
SOUTHWEST NEBRASKA

CITY           SKY/WX    TMP DP  RH WIND       PRES   REMARKS
NORTH PLATTE   CLEAR     49  43  80 SE6       30.19F
IMPERIAL       PTCLDY    52  48  86 S10       30.17F
LEXINGTON      CLEAR     46  44  90 S7        30.22F
MCCOOK         CLEAR     48  43  82 S7        30.22F
OGALLALA       MOCLDY    52  48  86 CALM      30.18R
$$

NEZ005>010-023>029-035>040-094-161100-
NORTH CENTRAL NEBRASKA

CITY           SKY/WX    TMP DP  RH WIND       PRES   REMARKS
VALENTINE      CLEAR     52  42  69 S10       30.12F
AINSWORTH      CLEAR     46  41  82 S13       30.15F
BROKEN BOW     CLEAR     45  41  86 S3        30.20F
O`NEILL        CLEAR     45  43  91 S10       30.19F
ORD            CLEAR     40  38  93 SE3       30.21F
THEDFORD       CLEAR     50  43  76 S8        30.16F
$$

NEZ041-046>049-061>064-073>077-083>087-161100-
SOUTH CENTRAL NEBRASKA

CITY           SKY/WX    TMP DP  RH WIND       PRES   REMARKS
GRAND ISLAND   CLEAR     47  43  86 S9        30.24F
AURORA         CLEAR     44  42  91 S5        30.25S
HASTINGS       CLEAR     47  41  80 S7        30.24F
HEBRON         CLEAR     40  38  93 CALM      30.25F
HOLDREGE       CLEAR     45  42  89 S3        30.23S
KEARNEY *      CLEAR     45  41  87 S9        30.23F
YORK           CLEAR     45  41  87 S3        30.25F FOG
$$

NEZ011>018-030>034-042>045-161100-
NORTHEAST NEBRASKA

CITY           SKY/WX    TMP DP  RH WIND       PRES   REMARKS
NORFOLK        CLEAR     41  38  89 S5        30.23F
ALBION         CLEAR     42  39  89 SE5       30.23F
BLAIR          CLEAR     45  42  91 CALM      30.25S
COLUMBUS *     CLEAR     37  36  93 CALM      30.25F
FREMONT          N/A     45  44  96 CALM      30.25F FOG
TEKAMAH        FOG       40  39  97 S5        30.25F VSB 1/2
WAYNE          CLEAR     37  36  96 CALM      30.24S
$$

NEZ050>053-065>068-078-088>093-161100-
SOUTHEAST NEBRASKA

CITY           SKY/WX    TMP DP  RH WIND       PRES   REMARKS
LINCOLN        CLEAR     42  40  92 CALM      30.26F
OMAHA EPPLEY   FOG       44  42  93 CALM      30.27S VSB 3/4
BEATRICE       CLEAR     40  38  95 CALM      30.26F
FALLS CITY     CLEAR     42  41  96 CALM      30.26S
NEBRASKA CITY  CLEAR     46  43  87 CALM      30.26F
PLATTSMOUTH    CLEAR     44  42  92 CALM      30.26S
$$

NEZ044-045-051>053-067-161100-
OMAHA AREA

CITY           SKY/WX    TMP DP  RH WIND       PRES   REMARKS
OMAHA EPPLEY   FOG       44  42  93 CALM      30.27S VSB 3/4
BLAIR          CLEAR     45  42  91 CALM      30.25S
FREMONT          N/A     45  44  96 CALM      30.25F FOG
MILLARD        FOG       44  43  97 CALM      30.26S VSB 1
PLATTSMOUTH    CLEAR     44  42  92 CALM      30.26S
WAHOO          FAIR      40  38  92 CALM      30.25S
$$


USA.gov is the U.S. government's official web portal to all federal, state and local government web resources and services.